Torna al catalogo

STARLINK-36642

AttivoComunicazioniSSO
NORAD 67659·PAYLOAD·🇺🇸 United States

Lanciato Feb 2, 2026 da Vandenberg Space Force Base

Loading…

Prossimi Passaggi (prossime 24 ore)

TLE

AggiornatoSource: CelesTrak SupGP

Epoca: Sep 15, 2026, 03:12 UTC

1 67659C 26022M   26258.13381944 -.00029986  00000+0 -93081-3 0  2588
2 67659  97.2838 289.7691 0001195  95.6325 293.4001 15.33455336    18

Traccia STARLINK-36642 in tempo reale con AllMySat

Download on the App Store